Regional Weather Roundup
Issued by NWS

Home | Current Version | Previous Version | Graphics & Text | Print | Product List | Glossary On
Versions: 1 2 3 4 5 6 7 8 9 10 11 12 13 14 15 16 17 18 19 20 21 22 23 24 25 26 27 28 29 30 31 32 33 34 35 36 37 38 39 40 41 42 43 44 45 46 47 48 49 50
000
ASUS43 KDMX 272208
RWRIA

WEATHER ROUNDUP FOR IOWA
NATIONAL WEATHER SERVICE DES MOINES IA
500 PM CDT TUE SEP 27 2016

NOTE: "FAIR" INDICATES FEW OR NO CLOUDS BELOW 12,000 FEET WITH NO
SIGNIFICANT WEATHER AND/OR OBSTRUCTIONS TO VISIBILITY.

* - THESE STATIONS ARE NOT NWS STATIONS...THUS NOT UNDER NWS
QUALITY CONTROL.  THEY ALSO DO NOT REPORT WEATHER SUCH
AS PRECIPITATION OR FOG.

IAZ001>003-012>014-020>022-031>034-043>046-272300-
   NORTHWEST IOWA

CITY           SKY/WX    TMP DP  RH WIND       PRES   REMARKS
CARROLL *      SUNNY     75  43  31 NW15G24   29.84S
CHEROKEE *     SUNNY     72  42  34 W14G20    29.85F
DENISON *      SUNNY     73  43  33 NW15G23   29.84F
LE MARS *      SUNNY     75  45  33 NW10G21   29.86F
ORANGE CITY *  SUNNY     73  45  35 NW16G22   29.86F
SHELDON *      SUNNY     72  43  35 NW15G26   29.84F
SIOUX CITY     SUNNY     76  46  34 NW14      29.86F
SPENCER        SUNNY     72  41  32 NW21G31   29.83F
STORM LAKE *   SUNNY     72  41  33 NW17G26   29.85F
$$

IAZ055>058-069>071-079>083-090>094-272300-
   SOUTHWEST IOWA

CITY           SKY/WX    TMP DP  RH WIND       PRES   REMARKS
ATLANTIC *     SUNNY     75  41  29 NW17G24   29.86F
AUDUBON *      SUNNY     73  41  31 NW12G18   29.87S
CLARINDA *       N/A     77  43  29 MISG      29.89F
COUNCIL BLFS * SUNNY     77  43  29 NW8G16    29.88F
CRESTON *      SUNNY     73  41  31 NW17      29.87F
HARLAN  *      SUNNY     75  41  29 NW16G24   29.90F
LAMONI         SUNNY     76  43  30 W14       29.86F
RED OAK *      SUNNY     77  43  29 NW10      29.88F
SHENANDOAH *   SUNNY     77  45  31 NW6G15    29.89F
$$

IAZ047>049-059>061-072>074-084-272300-
   CENTRAL IOWA

CITY           SKY/WX    TMP DP  RH WIND       PRES   REMARKS
AMES           SUNNY     74  43  32 NW14G24   29.81F
ANKENY *         N/A    N/A N/A N/A MISG        N/A
BOONE *        SUNNY     73  43  33 NW18G24   29.81F
CHARITON *       N/A     75  41  29 NW13G20   29.83F
DES MOINES     MOSUNNY   75  42  30 W20G26    29.82F
GRINNELL*      SUNNY     73  39  29 W15G22    29.81F
KNOXVILLE *    SUNNY     75  39  27 W17G29    29.81S
MARSHALLTOWN   SUNNY     72  39  30 NW22G30   29.79F
NEWTON *       SUNNY     73  39  29 W12G24    29.80F
PELLA *        SUNNY     74  41  29 W15G22    29.83S
PERRY *          N/A     75  39  27 NW10G20   29.83F
$$

IAZ004>006-015-016-023>025-035-036-272300-
   NORTH CENTRAL IOWA

CITY           SKY/WX    TMP DP  RH WIND       PRES   REMARKS
ALGONA *       SUNNY     72  36  26 NW14G23   29.81F
CLARION *      SUNNY     70  36  28 NW18G26   29.80F
ESTHERVILLE    MOSUNNY   71  34  25 NW20G25   29.81F
FORT DODGE *   SUNNY     72  43  35 NW12G21   29.82F
MASON CITY     SUNNY     68  30  24 NW17G28   29.80F
FOREST CITY *    N/A     68  28  22 NW18      29.80S
WEBSTER CITY * SUNNY     73  41  31 NW16G29   29.79F
IOWA FALLS *     N/A     71  35  26 NW18G28   29.81F
$$

IAZ007>011-017>019-026>030-037>042-050>054-066-272300-
   NORTHEAST IOWA

CITY           SKY/WX    TMP DP  RH WIND       PRES   REMARKS
CEDAR RAPIDS   SUNNY     70  39  32 W17G25    29.77F
CHARLES CITY * MOSUNNY   68  27  21 W17G29    29.79S
CLINTON *      MOSUNNY   71  32  23 W20G25    29.76F
DECORAH *      CLOUDY    63  34  34 W13G21    29.76R
DUBUQUE        SUNNY     65  34  31 NW14      29.77S
MONTICELLO *   SUNNY     72  30  21 W15G26    29.76S
OELWEIN *      SUNNY     68  30  24 NW15G24   29.77F
WATERLOO       SUNNY     71  27  19 W16G26    29.76F
$$

IAZ064-065-067-068-078-272300-
   EAST CENTRAL IOWA

CITY           SKY/WX    TMP DP  RH WIND       PRES   REMARKS
DAVENPORT      MOSUNNY   73  28  18 W21G30    29.78S
IOWA CITY      SUNNY     71  37  28 W9G22     29.79F
MT. PLEASANT * SUNNY     77  38  24 NW9G18    29.80F
MUSCATINE *    SUNNY     75  32  20 W14G26    29.79S
QUAD CITIES    SUNNY     74  35  24 W13G23    29.77S
$$

IAZ062-063-075>077-085>089-095>099-272300-
   SOUTHEAST IOWA

CITY           SKY/WX    TMP DP  RH WIND       PRES   REMARKS
BURLINGTON     SUNNY     74  36  25 W13G18    29.80F
FAIRFIELD *    SUNNY     75  37  25 W14G25    29.80F
FORT MADISON *   N/A     75  37  25 W13G22    29.82S
KEOKUK *       SUNNY     77  37  24 W12G20    29.80F
OSKALOOSA *      N/A     75  38  26 W17G25    29.82S
CENTERVILLE *    N/A     75  39  27 W13       29.85F
OTTUMWA        SUNNY     74  40  29 NW18      29.81F
WASHINGTON *     N/A    N/A N/A N/A MISG        N/A
$$

ABBREVIATIONS USED IN REMARKS
   TC - TEMPERATURES IN CELSIUS
  WCI - WIND CHILL INDEX
   HX - HEAT INDEX
  VSB - VISIBILITY
$$





USA.gov is the U.S. government's official web portal to all federal, state and local government web resources and services.